EHI
12 5 1 0 0 0 1 1 1 0 0 2 6 12 16 14 10 8 9 24 49 54 42 44 56 55 41 27 15 7 4 3 1 0 0 0 0 0 0 0 0 0 0 0 0 0 0 0 0
4 2 0 0 0 1 1 1 0 0 1 2 6 11 16 17 16 13 15 32 53 55 44 46 57 56 44 30 18 10 6 4 1 0 0 0 0 0 0 0 0 0 0 0 0 0 0 0 0
0 0 0 0 0 1 2 2 1 0 1 4 9 12 13 14 15 15 22 41 57 55 45 48 58 58 45 33 23 15 8 5 3 1 0 0 0 0 0 0 0 0 0 0 0 0 0 0 0
0 0 0 0 0 1 2 2 2 3 5 9 15 15 12 13 18 21 27 42 56 52 44 47 57 56 45 35 27 17 10 6 4 2 1 1 1 0 0 0 0 0 0 0 0 0 0 0 0
0 0 0 0 0 0 1 3 6 10 12 16 20 20 18 22 31 31 29 40 52 49 41 44 51 51 43 35 27 18 11 7 5 3 2 2 2 1 0 0 0 0 0 0 0 0 0 0 0
0 0 0 0 0 0 1 5 10 16 18 19 23 25 25 29 36 35 30 35 43 43 38 37 40 41 38 31 24 17 12 8 6 4 3 3 3 2 0 0 0 0 0 0 0 0 0 0 0
0 0 0 0 0 0 2 6 12 18 22 21 22 24 25 30 37 40 35 30 32 34 32 29 27 28 28 25 20 17 13 9 7 6 5 4 3 1 0 0 0 0 0 0 0 0 0 0 0
0 0 0 0 0 1 3 6 12 20 25 22 18 18 22 33 47 55 48 35 28 26 23 20 17 18 20 19 18 19 17 13 9 7 5 4 3 1 0 1 1 1 1 1 0 0 0 0 0
0 0 0 0 0 1 3 6 12 22 27 23 18 17 23 38 55 66 63 48 30 20 14 12 13 15 17 16 16 17 17 13 8 5 4 4 3 1 0 1 2 2 2 2 1 1 1 0 0
0 0 0 1 1 1 4 6 11 21 28 28 26 25 30 43 57 66 66 54 34 18 11 10 12 14 15 14 12 11 11 8 4 2 3 3 3 1 1 1 1 1 1 2 3 4 2 1 0
0 0 1 2 3 3 6 9 13 21 27 30 32 32 35 47 57 60 60 51 37 23 15 13 13 13 13 13 11 7 5 3 1 2 4 4 3 2 1 0 0 0 0 2 4 4 2 1 0
0 0 1 3 4 6 9 15 22 25 26 28 31 32 35 44 52 54 51 47 39 32 25 21 19 16 15 14 11 7 4 2 1 2 3 3 1 1 1 0 0 0 1 2 3 2 1 0 1
0 0 1 2 4 8 13 21 29 29 26 25 28 30 33 40 47 49 46 43 41 39 34 28 25 22 19 15 10 6 4 2 1 1 2 2 1 0 0 0 0 1 2 3 2 0 0 1 1
0 0 0 1 3 8 14 22 27 26 24 25 28 31 34 39 43 42 40 39 40 41 38 31 27 25 20 14 7 4 3 2 2 2 3 3 1 0 0 0 0 1 2 2 2 1 1 1 1
0 0 0 1 2 5 11 15 17 19 21 23 25 31 36 40 40 36 35 37 38 38 34 28 26 22 16 10 6 3 1 0 1 3 4 3 1 0 0 0 0 0 1 1 1 1 1 0 0
0 0 0 1 1 3 6 8 9 13 16 19 22 26 32 36 34 32 32 33 33 29 24 22 20 16 12 8 6 3 2 1 1 2 3 2 1 0 0 0 0 0 0 0 1 1 1 0 0
0 0 0 0 1 2 3 5 6 8 12 17 22 25 27 26 26 27 27 26 25 22 18 15 12 9 8 7 6 5 4 4 3 2 2 1 0 0 0 0 0 0 0 0 0 0 0 0 0
0 0 0 0 0 1 3 4 5 6 11 18 23 25 23 19 19 21 21 20 20 18 14 10 8 6 6 6 5 4 4 3 3 2 1 0 0 0 0 0 0 0 0 0 0 0 0 0 0
0 0 0 0 0 1 2 3 5 7 11 17 21 22 20 16 15 16 17 17 16 14 11 8 6 5 4 4 3 2 2 1 1 1 0 0 0 0 0 0 0 0 0 0 0 0 0 0 0
0 0 0 0 0 0 1 3 4 6 8 13 17 17 15 13 12 12 13 13 12 10 8 7 5 4 3 3 1 1 0 0 0 0 0 0 0 0 0 0 0 0 0 0 0 0 0 0 0
0 0 0 0 0 0 1 1 2 3 6 9 12 14 12 10 9 10 12 11 9 7 6 5 5 3 2 1 0 0 0 0 0 0 0 0 0 0 0 0 0 0 0 0 0 0 0 0 0
0 0 0 0 0 0 0 0 0 1 3 4 7 9 10 8 8 9 11 10 8 6 5 4 4 3 1 0 0 0 0 0 0 0 0 0 0 0 0 0 0 0 0 0 0 0 0 0 0
0 0 0 0 0 0 0 0 0 0 1 1 3 6 7 7 7 8 8 7 6 5 4 3 3 2 1 0 0 0 0 0 0 0 0 0 0 0 0 0 0 0 0 0 0 0 0 0 0
0 0 0 0 0 0 0 0 0 0 0 0 1 4 7 7 6 6 5 4 4 3 3 3 2 2 1 0 0 0 0 0 0 0 0 0 0 0 0 0 0 0 0 0 0 0 0 0 0
0 0 0 0 0 0 0 0 0 0 0 0 1 3 5 6 5 4 3 2 2 3 4 3 1 1 0 0 0 0 0 0 0 0 0 0 0 0 0 0 0 0 0 0 0 0 0 0 0
0 0 0 0 0 0 0 0 0 0 0 0 0 1 2 4 3 3 2 2 3 5 4 2 1 0 0 0 0 0 0 0 0 0 0 0 0 0 0 0 0 0 0 0 0 0 0 0 0
0 0 0 0 0 0 0 0 0 0 0 0 0 0 1 2 2 1 1 2 3 3 2 2 2 1 0 0 0 0 0 0 0 0 0 0 0 0 0 0 0 0 0 0 0 0 0 0 0
0 0 0 0 0 0 0 0 0 0 0 0 0 0 0 1 1 0 0 1 1 1 1 1 3 2 1 0 0 0 0 0 0 0 0 0 0 0 0 0 0 0 0 0 0 0 0 0 0
0 0 0 0 0 0 0 0 0 0 0 0 0 0 0 0 0 0 0 0 0 0 1 2 3 3 1 0 1 0 0 0 0 0 0 0 0 0 0 0 0 0 0 0 0 0 0 0 0
0 0 0 0 0 0 0 0 0 0 0 0 0 0 0 0 0 0 0 0 0 0 1 2 3 2 1 0 1 0 0 0 0 0 0 0 0 0 0 0 0 0 0 0 0 0 0 0 0
Wind_Speed
7 5 3 0 2 3 1 4 3 7 5 4 3 5 7 5 5 6 5 15 18 16 12 15 17 18 17 17 16 16 16 16 16 15 15 15 15 14 14 13 13 13 12 12 11 11 11 11 11
4 5 2 1 2 2 4 5 5 6 1 2 4 7 7 7 9 10 9 15 18 15 11 13 18 18 17 17 16 16 15 15 15 15 14 14 13 13 13 12 12 12 12 12 11 11 10 10 10
4 4 1 1 1 3 5 7 7 3 3 3 3 5 5 6 9 7 11 17 15 12 9 13 19 18 17 17 16 15 15 15 14 14 13 13 13 12 12 11 11 11 11 11 11 10 10 9 9
2 2 1 1 4 5 6 8 5 2 4 6 5 5 5 3 5 13 18 18 15 11 9 13 19 18 17 16 16 15 15 14 14 13 12 12 12 11 11 10 10 10 10 10 10 10 9 8 8
2 2 1 2 4 5 6 8 4 3 4 5 7 6 4 5 16 20 17 17 15 11 8 11 18 18 17 16 16 15 15 14 13 13 12 11 11 10 10 10 10 9 9 9 9 9 8 7 6
1 2 1 3 4 5 5 5 2 5 8 6 7 5 2 6 15 16 16 14 14 13 9 10 17 17 16 16 15 15 14 14 13 13 12 11 10 10 9 9 9 9 9 9 8 8 8 7 5
2 1 2 4 4 5 4 3 2 5 7 5 7 5 1 5 10 14 14 13 11 11 9 7 9 12 15 15 15 14 14 13 12 12 11 11 10 9 9 9 9 9 9 9 9 8 8 7 5
4 2 3 3 3 5 2 2 3 7 5 6 5 7 3 4 10 14 13 11 10 8 8 7 7 7 7 8 13 14 13 12 11 11 10 10 9 9 9 8 8 9 9 9 9 9 8 7 6
1 2 4 5 4 5 2 2 3 4 8 4 3 5 6 9 14 15 12 9 7 7 6 6 6 6 6 6 10 10 11 10 9 8 9 8 4 4 5 7 9 10 10 10 10 9 9 8 7
4 3 8 8 6 4 2 2 4 6 9 6 6 5 8 10 13 13 12 12 9 8 6 5 6 6 6 6 5 3 4 4 4 3 3 3 2 2 4 6 9 10 10 10 10 10 9 6 3
4 7 8 8 7 3 0 2 4 9 6 7 11 11 10 11 10 11 10 10 10 9 8 6 6 6 5 3 4 2 2 2 3 4 3 2 2 1 2 2 3 5 7 4 5 5 3 3 3
5 8 8 6 4 0 1 4 7 7 5 6 8 11 10 11 11 10 8 8 9 8 7 6 6 5 5 4 4 3 3 2 2 3 3 2 1 1 0 1 2 2 2 2 2 2 3 4 4
4 6 4 3 1 3 6 8 9 8 7 8 7 9 8 9 10 9 8 7 7 7 6 6 6 6 5 4 3 4 3 3 3 2 2 3 2 1 1 0 0 1 1 2 2 3 4 4 3
3 3 3 3 3 4 9 7 7 5 5 8 7 6 6 9 11 10 8 7 5 6 7 6 6 6 6 4 4 3 3 3 3 2 3 3 2 1 1 0 0 0 1 2 2 3 3 3 2
3 4 6 4 4 2 7 8 4 4 6 8 6 5 5 7 8 8 8 8 6 5 6 6 7 6 6 5 4 3 3 3 2 2 3 3 3 2 2 1 1 1 0 0 1 1 1 2 2
5 4 4 5 4 3 6 2 1 3 8 7 4 5 6 6 7 6 7 7 6 5 5 6 7 7 6 4 3 3 3 3 2 2 3 3 4 3 3 2 1 1 1 1 1 1 1 1 1
4 1 3 5 3 2 5 3 1 3 7 7 5 5 7 7 6 5 6 7 6 4 5 6 6 6 5 4 3 3 3 3 2 2 2 3 3 3 3 2 1 1 2 1 1 1 1 1 1
5 2 1 2 4 4 3 2 2 4 7 7 5 6 8 8 6 7 7 7 7 5 5 6 6 5 4 4 3 3 3 2 2 2 2 3 2 3 3 2 2 2 2 1 1 0 0 1 2
5 3 2 1 2 4 2 1 1 2 4 5 4 5 6 6 4 5 7 8 7 6 6 5 5 4 3 3 2 2 1 1 1 1 2 3 3 3 3 2 2 2 1 1 1 1 1 1 0
4 5 3 1 2 3 2 2 2 2 2 4 5 5 7 6 5 5 6 6 6 6 6 6 5 4 3 2 2 2 2 1 1 1 2 1 2 2 3 3 2 2 1 2 2 2 1 1 1
2 6 7 6 1 4 3 3 2 1 1 2 4 6 6 9 9 7 6 6 6 6 7 7 5 5 4 4 3 3 3 3 3 2 1 2 1 1 1 3 2 2 2 1 1 1 2 1 1
2 5 9 9 5 1 2 1 3 1 0 2 4 5 6 7 8 7 7 7 6 6 6 6 6 5 4 4 5 5 3 2 0 0 1 2 2 1 0 1 2 1 1 1 0 1 1 1 1
4 5 7 6 5 4 3 1 4 1 2 4 6 7 6 6 8 8 9 8 7 7 7 6 6 5 4 5 5 5 3 2 1 1 3 3 3 3 2 2 2 1 1 1 0 1 0 1 1
11 7 7 6 5 3 2 1 5 5 7 7 7 8 8 7 8 8 7 6 6 6 7 6 6 5 5 5 5 5 4 3 3 3 3 2 2 3 3 3 2 1 1 1 1 0 1 1 1
5 5 4 5 5 2 2 2 8 7 7 9 10 10 9 9 9 8 8 8 8 8 7 6 7 5 5 5 5 4 4 4 3 2 1 1 1 1 2 2 2 1 1 1 1 1 1 1 1
3 7 7 4 2 3 2 3 8 6 6 8 9 9 8 8 8 8 9 9 9 9 8 7 7 6 5 5 4 4 4 3 2 2 2 1 1 1 1 1 1 1 1 2 1 1 2 2 2
3 3 6 8 3 0 3 5 7 1 5 7 8 9 9 10 10 10 9 9 9 10 9 9 8 6 5 5 5 4 4 3 3 2 1 1 1 1 0 1 1 2 2 2 1 1 2 2 3
4 7 6 6 5 2 2 4 5 5 7 8 9 10 9 10 11 10 9 9 9 9 8 8 8 7 6 6 5 4 4 4 3 2 1 1 1 0 1 2 2 2 2 2 1 2 3 3 3
2 3 6 5 5 6 3 8 9 11 10 11 11 11 11 12 12 10 9 9 8 8 8 7 7 6 5 5 4 4 3 3 2 2 2 2 1 1 1 2 2 2 3 2 2 3 3 3 3
3 4 6 6 4 5 4 9 6 11 10 11 11 10 11 12 11 10 10 8 8 8 7 7 7 6 6 5 5 4 3 3 2 2 2 2 2 2 2 2 2 3 3 3 3 4 3 3 4
Wind_Direction
183 187 187 192 45 47 297 260 272 311 334 340 47 100 106 90 129 140 123 137 136 141 145 143 140 138 135 133 131 130 128 127 125 123 122 122 122 122 121 120 118 117 116 115 114 113 112 112 112
169 191 184 48 79 55 272 257 263 271 295 19 54 73 73 70 86 105 116 137 137 139 140 142 141 139 137 136 135 134 133 132 131 130 130 130 129 127 127 125 124 123 121 120 120 119 118 117 116
199 199 144 98 152 187 242 260 255 287 336 346 45 42 62 96 105 114 135 139 135 135 136 144 142 141 141 140 138 137 136 136 137 136 135 135 134 133 131 131 131 129 127 125 124 124 123 123 121
178 111 53 122 230 227 225 252 254 289 20 25 63 40 25 69 110 128 137 140 133 133 135 143 141 141 142 142 140 139 139 140 141 140 139 139 139 139 139 137 135 133 131 130 130 131 131 130 127
113 105 70 272 246 249 257 259 225 122 94 59 72 74 30 34 112 129 138 139 136 134 134 141 142 143 143 143 143 143 143 143 144 144 145 146 145 144 143 144 142 141 141 139 137 137 137 137 136
62 102 107 268 265 269 257 237 165 113 115 109 94 89 50 114 123 135 136 137 137 137 135 141 144 145 145 145 146 146 146 148 149 150 151 152 152 151 150 151 152 152 151 151 149 147 147 149 150
154 137 237 264 285 283 261 205 150 124 123 133 130 104 117 118 121 129 129 130 131 134 135 136 143 146 149 150 150 150 152 153 154 155 156 158 160 160 161 162 165 164 163 163 163 163 164 168 172
175 97 311 301 299 289 266 120 113 127 122 127 128 129 169 151 120 115 117 118 123 129 137 140 143 145 148 152 155 156 156 157 158 161 162 164 167 170 172 173 178 177 176 177 176 176 178 183 192
165 74 268 261 256 267 272 89 53 93 120 125 124 135 156 131 116 113 113 116 127 135 142 150 148 146 147 153 162 159 159 161 163 169 172 169 167 175 181 189 192 192 188 188 187 187 189 196 208
148 184 241 238 239 251 257 131 138 109 104 103 108 125 125 119 117 120 130 142 149 154 157 158 155 154 153 161 144 146 153 153 156 167 175 161 164 195 199 204 203 202 198 196 196 197 196 199 212
191 218 247 267 268 252 65 65 77 120 107 145 148 146 128 123 120 123 135 146 151 152 155 163 163 156 154 140 139 140 138 145 158 166 171 166 163 194 205 195 211 208 203 197 202 202 200 195 202
227 251 255 273 278 1 109 88 76 80 118 134 138 139 138 138 132 127 131 141 139 140 139 141 138 136 133 129 139 141 143 149 155 162 160 148 136 127 141 204 203 196 188 189 196 195 203 209 213
233 252 260 269 350 86 84 79 89 75 86 94 109 123 134 133 122 122 131 129 128 135 131 128 121 120 120 117 125 125 131 141 152 144 136 133 132 125 113 295 197 197 189 198 204 205 206 210 218
264 294 310 326 27 65 85 78 80 80 98 96 105 114 116 120 123 121 121 114 129 135 131 126 115 116 113 114 115 121 124 132 133 133 138 136 132 133 122 77 356 256 209 200 202 199 199 200 201
320 340 340 360 24 54 91 59 72 110 98 91 106 114 104 118 120 133 139 130 131 137 132 127 122 112 110 111 115 116 127 130 129 134 132 129 124 111 106 92 53 335 324 188 152 181 172 184 201
353 360 330 329 6 10 89 122 116 115 107 101 115 130 115 112 117 136 133 126 128 126 123 122 118 109 110 113 112 112 119 121 132 131 118 119 118 115 102 93 61 5 53 68 96 119 159 219 224
353 311 291 312 355 30 92 153 192 118 112 121 132 130 126 118 121 137 134 127 123 120 114 104 105 109 110 107 101 95 100 108 124 126 123 123 118 112 106 95 61 43 51 41 20 91 144 230 264
253 225 254 311 339 37 74 151 160 128 122 129 130 134 132 135 154 153 143 136 130 128 116 109 105 105 104 95 80 68 68 74 101 123 132 130 121 115 111 100 80 67 58 24 4 0 221 220 244
217 158 107 349 348 41 41 101 119 88 98 116 122 133 137 143 169 152 146 138 133 131 124 117 108 105 97 86 90 91 86 72 62 89 110 121 122 117 114 106 88 74 70 33 6 13 351 311 284
186 135 133 30 355 57 38 27 43 64 130 153 150 156 154 158 158 155 146 142 142 137 128 120 118 109 101 105 119 124 116 97 95 56 59 81 114 123 136 133 127 104 78 38 36 51 42 336 42
180 168 173 170 86 45 65 14 348 341 119 143 155 165 165 166 166 166 153 154 146 144 142 136 131 120 111 105 85 68 56 46 37 24 5 337 13 93 140 155 145 126 114 91 47 80 95 357 337
194 184 156 148 126 72 64 337 290 242 183 177 183 185 187 184 171 164 161 161 158 155 144 135 131 125 117 108 98 99 101 94 63 314 337 338 351 351 348 150 146 132 119 107 24 101 111 117 324
145 120 111 114 106 76 24 91 279 223 231 220 212 207 205 197 175 169 171 169 162 153 141 138 133 128 120 112 113 109 105 117 71 36 28 15 8 14 37 76 97 101 104 114 53 50 70 156 187
124 91 68 54 67 51 289 191 268 215 207 200 206 205 193 184 177 174 171 158 153 148 141 138 133 131 127 120 119 120 118 105 78 57 44 25 14 19 33 59 60 62 48 336 290 268 265 248 235
124 104 46 13 22 278 260 227 252 225 192 185 193 191 181 175 172 169 168 162 157 155 152 147 140 140 141 132 131 131 128 119 120 123 96 65 21 8 6 41 42 21 332 316 321 303 287 261 256
200 143 153 170 206 277 317 259 261 233 197 181 180 178 175 176 176 173 172 166 162 162 159 155 153 155 156 146 141 135 131 132 146 153 153 150 179 217 219 68 26 343 326 328 333 300 281 273 272
137 119 144 121 126 149 279 285 300 212 166 171 177 176 179 178 179 177 174 169 164 165 168 166 162 163 165 156 144 141 145 149 160 167 159 178 212 215 188 326 323 307 303 302 309 286 283 285 270
139 140 101 112 145 194 271 263 235 205 178 177 178 185 184 179 180 178 176 170 169 169 170 166 164 166 169 163 162 158 163 168 168 157 174 207 236 268 315 314 303 294 289 288 289 283 281 282 276
85 101 112 117 146 148 208 256 220 198 186 179 188 186 179 181 181 178 176 172 167 162 162 165 166 163 166 166 161 155 166 169 164 165 193 203 218 245 266 274 281 283 284 282 272 270 276 277 281
171 165 140 144 185 167 175 258 237 185 185 181 186 186 179 178 177 171 166 162 159 160 162 164 167 166 171 167 162 165 167 163 166 189 208 214 233 249 251 259 268 272 269 265 261 267 275 268 271